#timestamp,LO_Frequency,Hit,StdDev 
1649797215.3,286047000.3,N
1649797235.1,286046999.9,N
1649797255.9,286046996.9,N
1649797275.7,286046998.9,N
1649797295.5,286046999.7,N
1649797315.4,286047000.0,N
1649797335.2,286047001.1,N
1649797355.1,286047000.8,N
1649797356.0,286047000.8,N
1649797375.8,286046998.2,N
1649797395.6,286046999.6,N
1649797415.5,286047000.9,N
1649797435.3,286047002.0,N
1649797455.1,286047001.9,N
1649797475.9,286047001.7,N
1649797495.7,286047002.0,N
1649797515.6,286047002.4,N
1649797535.4,286047001.0,N
1649797555.2,286047002.6,N
1649797575.1,286047002.5,N
1649797576.0,286047002.5,N
1649797595.8,286047002.5,N
1649797615.6,286047002.0,N
1649797635.5,286047001.2,N
1649797655.3,286046998.8,N
1649797675.2,286047001.1,N
1649797695.9,286047000.6,N
1649797715.7,286046999.1,N
1649797735.6,286046996.8,N
1649797755.4,286046997.4,N
1649797775.2,286046999.5,N
1649797795.1,286046999.1,N
1649797796.0,286046999.1,N
1649797815.8,286046997.0,N
1649797835.7,286047000.7,N
1649797855.5,286046998.3,N
1649797875.3,286046999.9,N
1649797895.2,286047001.9,N
1649797915.0,286047002.8,N
1649797915.9,286047002.8,N
1649797935.8,286047001.4,N
1649797955.6,286047001.8,N
1649797975.4,286047000.8,N
1649797995.3,286047000.4,N
1649798015.1,286047001.1,N
1649798035.9,286046998.5,N
1649798055.7,286046999.7,N
1649798075.5,286047001.7,N
1649798095.4,286047003.8,N
1649798115.2,286047003.9,N
1649798135.0,286047002.5,N
1649798135.9,286047002.5,N
1649798155.8,286046999.7,N
1649798175.6,286047000.2,N
1649798195.5,286047003.2,N
1649798215.3,286047005.9,Y
1649798235.1,286047003.3,P
1649798255.9,286047004.3,P
1649798275.7,286047002.1,N
1649798295.6,286047004.2,Y
1649798315.4,286046999.9,P
1649798335.2,286047002.1,N
1649798355.1,286047000.0,N
1649798356.0,286047000.0,N
1649798375.8,286046998.2,N
1649798395.7,286046998.7,N
1649798415.5,286046998.2,N
1649798435.3,286046998.9,N
1649798455.2,286046999.0,N
1649798475.9,286046996.9,N
1649798495.7,286046997.6,N
1649798515.6,286046998.3,N
1649798535.4,286046998.2,N
1649798555.3,286047000.9,N
1649798575.1,286046998.8,N
1649798576.0,286046998.8,N
1649798595.8,286046998.8,N
1649798615.7,286046998.3,N
1649798635.5,286046998.2,N
1649798655.3,286046999.5,N
1649798675.2,286046997.0,N
1649798695.0,286046998.3,N
1649798695.9,286046998.3,N
1649798715.8,286047000.1,N
1649798735.6,286046998.4,N
1649798755.4,286046996.6,N
1649798775.3,286046999.0,N
1649798795.1,286046996.9,N
1649798815.8,286046996.6,N
1649798835.7,286046997.7,N
1649798855.5,286046994.9,Y
1649798875.4,286046999.6,P
1649798895.2,286046996.6,P
1649798915.0,286046999.1,N
1649798915.9,286046999.1,N
1649798935.8,286046997.2,N
1649798955.6,286046996.7,Y
1649798975.5,286047002.7,P
1649798995.3,286047001.3,N
1649799015.1,286047002.7,N
1649799035.9,286046999.9,N
1649799055.7,286047000.0,N
1649799075.5,286047002.5,N
1649799095.4,286047001.8,N
1649799115.2,286047004.0,N
1649799135.1,286047003.7,N
1649799136.0,286047003.7,N
1649799155.8,286047005.5,Y
1649799175.6,286047003.6,P
1649799195.5,286047003.8,P
1649799215.3,286047002.6,N
1649799235.1,286047000.4,N
1649799255.9,286047002.4,N
1649799275.7,286046999.7,N
1649799295.6,286047000.0,N
1649799315.4,286047001.0,N
1649799335.2,286047000.5,N
1649799355.1,286047002.8,N
1649799356.0,286047002.8,N
1649799375.8,286047002.4,N
1649799395.7,286047000.5,N
1649799415.5,286046999.7,N
1649799435.3,286047000.0,N
1649799455.2,286047000.1,N
1649799475.0,286047000.3,N
1649799475.9,286047000.3,N
1649799495.7,286046998.4,N
1649799515.6,286047000.4,N
1649799535.4,286047001.2,N
1649799555.3,286047000.7,N
1649799605.1,286046999.9,E
1649799615.0,286047002.5,N
1649799616.0,286047002.5,P
1649799635.8,286047002.2,P
1649799655.6,286047004.4,Y
1649799675.5,286046999.9,P
1649799695.3,286047000.5,N
1649799715.1,286047001.0,N
1649799735.9,286047000.8,N
1649799755.7,286046998.9,N
1649799775.6,286046998.3,N
1649799795.4,286046999.5,N
1649799815.2,286047001.2,N
1649799835.1,286046998.1,N
1649799836.0,286046998.1,N
1649799855.8,286046998.5,N
1649799875.6,286046999.0,N
1649799895.5,286046999.0,N
1649799915.3,286046999.5,N
1649799935.2,286046996.8,N
1649799955.9,286046999.5,N
1649799975.7,286046998.4,N
1649799995.6,286046997.3,N
1649800015.4,286046995.2,Y
1649800035.2,286046995.8,P
1649800055.1,286046995.3,N
1649800056.0,286046995.3,N
1649800075.8,286046995.0,Y
1649800095.7,286046998.9,P
1649800115.5,286046998.1,N
1649800135.3,286047002.0,N
1649800155.2,286047002.3,N
1649800175.0,286047001.4,N
1649800175.9,286047001.4,N
1649800195.8,286047004.3,N
1649800215.6,286047005.6,N
1649800235.4,286047003.0,N
1649800255.3,286047005.4,N
1649800275.1,286047005.4,N
1649800295.8,286047005.4,N
1649800315.7,286047003.5,N
1649800335.5,286047005.3,N
1649800355.4,286047003.3,N
1649800375.2,286047005.6,N
1649800395.0,286047004.1,N
1649800395.9,286047004.1,N
1649800415.8,286047000.1,N
1649800435.6,286046999.7,N
1649800455.5,286047002.3,N
1649800475.3,286047001.1,N
1649800495.1,286047000.4,N
1649800515.9,286047002.2,N
1649800535.7,286047002.3,N
1649800555.5,286047001.3,N
1649800575.4,286047001.4,N
1649800595.2,286047005.6,N
1649800615.1,286047003.3,N
1649800616.0,286047003.3,N
1649800635.8,286047005.8,N
1649800655.6,286047003.9,N
1649800675.5,286047001.3,N
1649800695.3,286047004.2,N
1649800715.2,286047002.1,N
1649800735.9,286047003.9,N
1649800755.7,286046999.8,N
1649800775.6,286046998.5,N
1649800795.4,286047002.6,N
